Regional Weather Roundup
Issued by NWS

Home | Current Version | Previous Version | Graphics & Text | Print | Product List | Glossary Off
Versions: 1 2 3 4 5 6 7 8 9 10 11 12 13 14 15 16 17 18 19 20 21 22 23 24 25 26 27 28 29 30 31 32 33 34 35 36 37 38 39 40 41 42 43 44 45 46 47 48 49 50

000
ASUS45 KABQ 300510
RWRNM
WEATHER ROUNDUP FOR NEW MEXICO
NATIONAL WEATHER SERVICE ALBUQUERQUE NM
1100 PM MDT TUE JUL 29 2014

NOTE: "FAIR" MEANS FEW OR NO CLOUDS BELOW 12,000 FEET AGL WITH NO
       SIGNIFICANT WEATHER OR OBSTRUCTIONS TO VISION.

      THIS PRODUCT IS RELEASED AS TWO VERSIONS.  ONE VERSION NEAR
      THE TOP OF THE HOUR CONTAINING PRELIMINARY DATA FROM ALBUQUERQUE
      AND OTHER STATIONS.  A FINAL VERSION WITH ADDITIONAL DATA IS
      ISSUED ABOUT 10 MINUTES AFTER THE HOUR.

NMZ501-503-504-510>518-300600-
NORTHWEST PLATEAU/NORTHCENTRAL MOUNTAINS

CITY           SKY/WX    TMP DP  RH WIND       PRES   REMARKS
FARMINGTON     CLOUDY    75  48  38 W15       30.20R
LOS ALAMOS     MOCLDY    62  57  84 NW3       30.37R
SANTA FE       CLOUDY    64  57  78 NW6       30.32R
TAOS             N/A     57  54  88 CALM      30.34F
ANGEL FIRE     MOCLDY    56  54  92 S7        30.42F

$$
NMZ402-403-502-505>509-300600-
WESTCENTRAL MOUNTAINS/SOUTHWEST MOUNTAINS

CITY           SKY/WX    TMP DP  RH WIND       PRES   REMARKS
GALLUP         MOCLDY    67  55  65 VRB5      30.29R
SILVER CITY    MOCLDY    66  63  88 N7        30.27R

$$
NMZ407-409-411-412-300600-
SOUTHERN DESERTS

CITY           SKY/WX    TMP DP  RH WIND       PRES   REMARKS
LORDSBURG      FAIR      77  55  47 SE7       30.16R
DEMING         CLOUDY    75  67  76 CALM      30.16R
LAS CRUCES     CLOUDY    75  64  70 W5        30.18S
HOLLOMAN AFB   MOCLDY    75  66  73 S6        30.11F
ALAMOGORDO     MOCLDY    77  64  65 NW6       30.14S
T OR C         MOCLDY    71  62  73 SW5       30.18S

$$
NMZ519>523-300600-
CENTRAL VALLEYS/CENTRAL HIGHLANDS

CITY           SKY/WX    TMP DP  RH WIND       PRES   REMARKS
ALBUQUERQUE    TSTM      68  61  78 SE15      30.24F
DOUBLE EAGLE   CLOUDY    66  56  69 S13       30.25F
MORIARTY ARPT  FAIR      62  58  86 W7        30.31R
CLINES CORNERS CLOUDY    61  55  81 W8        30.31S
BELEN          FAIR      68  64  85 N6        30.23R
SOCORRO        FAIR      72  58  62 SW8       30.19S

$$
NMZ524>526-539-540-300600-
SOUTHCENTRAL MOUNTAINS

CITY           SKY/WX    TMP DP  RH WIND       PRES   REMARKS
RUIDOSO        NOT AVBL

$$
NMZ527>531-300600-
NORTHEAST HIGHLANDS/NORTHEAST PLAINS

CITY           SKY/WX    TMP DP  RH WIND       PRES   REMARKS
LAS VEGAS      MOCLDY    62  57  83 E13G21    30.33R
RATON          CLOUDY    62  59  90 CALM      30.24S
CLAYTON        CLOUDY    69  63  81 S12       30.17R

$$
NMZ532>537-300600-
EASTCENTRAL PLAINS

CITY           SKY/WX    TMP DP  RH WIND       PRES   REMARKS
TUCUMCARI      CLOUDY    73  63  70 S10       30.13S THUNDER
CANNON AFB     PTCLDY    68  64  88 S6        30.17F
CLOVIS AIRPORT NOT AVBL

$$
NMZ028-029-538-300600-
SOUTHEAST PLAINS

CITY           SKY/WX    TMP DP  RH WIND       PRES   REMARKS
ROSWELL        MOCLDY    74  68  81 CALM      30.10R
ARTESIA        MOCLDY    77  64  65 NW8       30.10R
CARLSBAD       CLOUDY    84  49  29 E5        30.06S
HOBBS          CLOUDY    75  63  64 E14G20    30.13F


$$


USA.gov is the U.S. government's official web portal to all federal, state and local government web resources and services.